O3B FM15 (43231 NORAD) Tracking and Keplerian Element Data

This shows tracking and keplerian element data for the satellite.

Feedback or suggestion? Click here.




ElementValue
Catalog43231
NameO3B FM15
Epoch Orbit794
Epoch Day227.05698319
Epoch Year2018
RAAN359.9333
Inclination0.0417
Eccentricity0.0002723
Argument of Perigee142.4972
Mean Anonmoly217.5853
Mean Motion5.00115694
Decay Rate-3E-07
L11 43231U 18024A 18227.05698319 -.00000030 00000-0 00000+0 0 9992
L22 43231 0.0417 359.9333 0002723 142.4972 217.5853 5.00115694 7947

Live tracking and technical data element details for O3B FM15 (NORAD 43231). O3B FM15 can be tracked NOW for your location showing map with azimuth and elevation plus other details from your city location.

Track the satellite on the map from your city or location and see movement details for azimuth, elevation, latitude, longitude, range, height, and movement on the map or in text.







IsCatalogInMostPopularTable: catalog: 43231, numindb: 47
Update: records affected: 1



GetName: 43231 O3B FM15

Hit Count: updated at: Wed, 15 Aug 2018 18:57:46 GMT